Stuart, FL

5:17 AM EDT on August 24, 2016 (GMT -0400)
Witham

Weather History for KSUA - September, 2012

Change the Weather History Date:

Thursday, September 13, 2012

  Actual Average Record
Temperature  
Mean Temperature 84 °F -  
Max Temperature 87 °F 88 °F 97 °F (1950)
Min Temperature 80 °F 74 °F 68 °F (1972)
Cooling Degree Days 18    
Growing Degree Days 34 (Base 50)    
Moisture  
Dew Point 72 °F    
Average Humidity 72    
Maximum Humidity 79    
Minimum Humidity 58    
Precipitation  
Precipitation 0.00 in - - ()
Sea Level Pressure  
Sea Level Pressure 30.05 in    
Wind  
Wind Speed 13 mph (East)    
Max Wind Speed 16 mph    
Max Gust Speed 23 mph    
Visibility 9 miles    
Events Rain    
Averages and records for this station are not official NWS values.
T = Trace of Precipitation, MM = Missing Value Source: NWS Daily Summary

Daily Weather History Graph

Daily Weather History Graph

Search for Another Location

Airport or City:

Trip Planner

Search our weather history database for the weather conditions in past years. The results will help you decide how hot, cold, wet, or windy it might be!

Date:

Astronomy

Sep. 13, 2012 Rise Set
Actual Time 7:05 AM EDT 7:27 PM EDT
Civil Twilight 6:42 AM EDT 7:50 PM EDT
Nautical Twilight 6:14 AM EDT 8:17 PM EDT
Astronomical Twilight 5:47 AM EDT 8:45 PM EDT
Moon 4:34 AM EDT (9/13) 5:41 PM EDT (9/13)
Length of Visible Light 13h 08m
Length of Day
12h 21m
Waning Crescent, 7% of the Moon is Illuminated
Sep 13
Waning Crescent
Sep 15
New
Sep 22
First Quarter
Sep 29
Full
Oct 8
Last Quarter

Hourly Weather History & Observations

Time (EDT) Temp. Heat Index Dew Point Humidity Pressure Visibility Wind Dir Wind Speed Gust Speed Precip Events Conditions
12:15 AM 80.6 °F 84.6 °F 71.6 °F 74% 30.07 in 10.0 mi East 15.0 mph 23.0 mph N/A   Clear
12:35 AM 80.6 °F 85.4 °F 73.4 °F 79% 30.07 in 10.0 mi East 16.1 mph 23.0 mph N/A   Scattered Clouds
12:55 AM 80.6 °F 85.4 °F 73.4 °F 79% 30.07 in 10.0 mi East 16.1 mph 23.0 mph N/A   Scattered Clouds
1:15 AM 80.6 °F 84.6 °F 71.6 °F 74% 30.07 in 10.0 mi East 13.8 mph 23.0 mph N/A   Scattered Clouds
1:35 AM 80.6 °F 84.6 °F 71.6 °F 74% 30.06 in 10.0 mi East 12.7 mph 19.6 mph N/A   Scattered Clouds
1:55 AM 80.6 °F 84.6 °F 71.6 °F 74% 30.06 in 10.0 mi East 12.7 mph 19.6 mph N/A   Clear
2:15 AM 80.6 °F 84.6 °F 71.6 °F 74% 30.05 in 10.0 mi East 13.8 mph - N/A   Clear
2:35 AM 80.6 °F 84.6 °F 71.6 °F 74% 30.05 in 10.0 mi East 13.8 mph 18.4 mph N/A   Clear
2:55 AM 80.6 °F 84.6 °F 71.6 °F 74% 30.05 in 10.0 mi East 12.7 mph - N/A   Scattered Clouds
3:15 AM 80.6 °F 85.4 °F 73.4 °F 79% 30.04 in 10.0 mi East 11.5 mph - N/A   Mostly Cloudy
3:35 AM 80.6 °F 84.6 °F 71.6 °F 74% 30.04 in 10.0 mi East 9.2 mph - N/A   Overcast
3:55 AM 80.6 °F 85.4 °F 73.4 °F 79% 30.04 in 10.0 mi East 11.5 mph 17.3 mph N/A   Overcast
4:35 AM 80.6 °F 83.9 °F 69.8 °F 70% 30.03 in 10.0 mi East 11.5 mph 20.7 mph N/A   Overcast
4:55 AM 80.6 °F 84.6 °F 71.6 °F 74% 30.03 in 10.0 mi East 11.5 mph - N/A   Mostly Cloudy
5:15 AM 82.4 °F 87.2 °F 71.6 °F 70% 30.03 in 10.0 mi East 12.7 mph - N/A   Mostly Cloudy
5:35 AM 82.4 °F 87.2 °F 71.6 °F 70% 30.04 in 10.0 mi East 12.7 mph 18.4 mph N/A   Overcast
5:55 AM 82.4 °F 86.3 °F 69.8 °F 66% 30.05 in 10.0 mi East 16.1 mph 21.9 mph N/A   Overcast
6:15 AM 82.4 °F 86.3 °F 69.8 °F 66% 30.05 in 10.0 mi East 13.8 mph - N/A   Overcast
6:47 AM 82.4 °F 88.2 °F 73.4 °F 74% 30.05 in 7.0 mi East 11.5 mph 17.3 mph N/A   Scattered Clouds
7:47 AM 82.4 °F 88.2 °F 73.4 °F 74% 30.06 in 7.0 mi ENE 13.8 mph 19.6 mph N/A   Mostly Cloudy
8:47 AM 82.4 °F 88.2 °F 73.4 °F 74% 30.07 in 7.0 mi East 12.7 mph - N/A   Scattered Clouds
9:47 AM 82.4 °F 87.2 °F 71.6 °F 70% 30.08 in 7.0 mi East 12.7 mph 16.1 mph N/A   Mostly Cloudy
10:47 AM 84.2 °F 89.6 °F 71.6 °F 66% 30.10 in 7.0 mi East 13.8 mph 19.6 mph N/A   Mostly Cloudy
11:47 AM 86.0 °F 91.8 °F 71.6 °F 62% 30.10 in 7.0 mi East 12.7 mph 16.1 mph N/A   Mostly Cloudy
1:47 PM 87.8 °F 93.8 °F 71.6 °F 58% 30.08 in 7.0 mi East 15.0 mph - N/A   Mostly Cloudy
3:47 PM 86.0 °F 91.8 °F 71.6 °F 62% 30.04 in 7.0 mi ENE 11.5 mph - N/A   Scattered Clouds
4:47 PM 86.0 °F 91.8 °F 71.6 °F 62% 30.03 in 7.0 mi ENE 13.8 mph - N/A   Mostly Cloudy
5:47 PM 84.2 °F 89.6 °F 71.6 °F 66% 30.02 in 7.0 mi ENE 13.8 mph - N/A   Mostly Cloudy
6:47 PM 84.2 °F 89.6 °F 71.6 °F 66% 30.02 in 7.0 mi North - - N/A   Scattered Clouds
8:15 PM 82.4 °F 87.2 °F 71.6 °F 70% 30.03 in 10.0 mi ENE 8.1 mph - N/A Rain Light Rain
8:35 PM 80.6 °F 85.4 °F 73.4 °F 79% 30.03 in 10.0 mi ENE 8.1 mph - N/A   Scattered Clouds
8:55 PM 80.6 °F 84.6 °F 71.6 °F 74% 30.04 in 10.0 mi ESE 6.9 mph - N/A   Scattered Clouds
9:15 PM 80.6 °F 84.6 °F 71.6 °F 74% 30.05 in 10.0 mi NE 8.1 mph - N/A   Scattered Clouds
9:35 PM 80.6 °F 84.6 °F 71.6 °F 74% 30.05 in 10.0 mi NE 12.7 mph 17.3 mph N/A Rain Light Rain
9:55 PM 80.6 °F 83.9 °F 69.8 °F 70% 30.05 in 10.0 mi NE 5.8 mph - N/A   Mostly Cloudy
10:15 PM 80.6 °F 84.6 °F 71.6 °F 74% 30.05 in 10.0 mi ENE 6.9 mph - N/A   Overcast
10:35 PM 80.6 °F 85.4 °F 73.4 °F 79% 30.06 in 10.0 mi ENE 6.9 mph - N/A   Overcast
10:55 PM 80.6 °F 85.4 °F 73.4 °F 79% 30.06 in 10.0 mi ENE 9.2 mph - N/A   Mostly Cloudy
11:15 PM 80.6 °F 84.6 °F 71.6 °F 74% 30.05 in 10.0 mi ENE 11.5 mph 16.1 mph N/A   Scattered Clouds
11:35 PM 80.6 °F 84.6 °F 71.6 °F 74% 30.05 in 10.0 mi ENE 9.2 mph - N/A   Clear
11:55 PM 80.6 °F 85.4 °F 73.4 °F 79% 30.05 in 10.0 mi ENE 12.7 mph - N/A   Clear